�N����,����,�~����,�C��,���x,�C��,����,���ϕ���,�ő�u�ԕ���,�ő厞����,���˗�,�I�_���x,�n�����x,�ő啗���N��,DTYPE
"23/08/18","00:10",0.0,25.1,88.1,1002.6,293.8,1.0,1.4,260.5,0.00,23.0,26.4,"00:03:36",1
"23/08/18","00:20",0.0,25.0,88.4,1002.4,320.5,1.1,1.7,322.8,0.00,23.0,26.4,"00:17:20",1
"23/08/18","00:30",0.0,25.0,88.5,1002.4,306.3,0.5,1.2,318.4,0.00,23.0,26.5,"00:22:16",1
"23/08/18","00:40",0.0,25.0,88.7,1002.6,279.6,0.6,0.8,267.6,0.00,23.0,26.3,"00:34:32",1
"23/08/18","00:50",0.0,25.0,88.8,1002.4,298.4,0.5,0.9,266.3,0.00,23.1,26.4,"00:40:24",1
"23/08/18","01:00",0.0,25.0,88.8,1002.4,297.4,0.7,1.3,256.8,0.00,23.1,26.5,"00:53:44",1
"23/08/18","01:10",0.0,25.1,88.8,1002.4,287.7,0.7,1.1,300.4,0.00,23.2,26.2,"01:05:44",1
"23/08/18","01:20",0.0,25.1,88.6,1002.2,308.3,0.8,1.7,335.3,0.00,23.1,26.2,"01:16:00",1
"23/08/18","01:30",0.0,25.2,88.5,1002.6,292.2,0.5,0.9,320.4,0.00,23.2,26.5,"01:20:48",1
"23/08/18","01:40",0.0,25.0,88.3,1002.6,271.1,0.5,1.2,247.2,0.00,23.0,26.2,"01:34:24",1
"23/08/18","01:50",0.0,25.0,88.3,1002.6,322.1,0.7,1.2,336.9,0.00,23.0,26.3,"01:42:16",1
"23/08/18","02:00",0.0,25.1,88.4,1002.9,334.8,0.7,1.0,337.6,0.00,23.1,26.2,"01:50:08",1
"23/08/18","02:10",0.0,24.9,88.6,1002.6,302.0,0.5,1.0,342.2,0.00,22.9,26.2,"02:02:48",1
"23/08/18","02:20",0.0,24.9,88.7,1002.9,274.8,0.2,0.6,247.4,0.00,22.9,26.1,"02:11:04",1
"23/08/18","02:30",0.0,24.8,89.1,1003.4,316.4,0.8,1.2,321.3,0.00,22.9,26.2,"02:27:52",1
"23/08/18","02:40",0.0,24.9,89.3,1003.1,320.2,0.7,1.0,351.8,0.00,23.1,26.4,"02:31:20",1
"23/08/18","02:50",0.0,24.8,89.5,1003.4,314.1,0.7,1.3,328.9,0.00,23.0,25.9,"02:46:56",1
"23/08/18","03:00",0.0,24.8,89.7,1003.1,330.6,0.7,1.4,332.7,0.00,23.0,26.2,"02:58:40",1
"23/08/18","03:10",0.0,24.8,89.9,1003.1,343.7,0.8,1.6,333.5,0.00,23.1,26.2,"03:01:44",1
"23/08/18","03:20",0.0,24.7,90.0,1003.4,335.7,0.7,1.1,334.1,0.00,23.0,26.1,"03:13:36",1
"23/08/18","03:30",0.0,24.7,90.2,1003.1,325.2,0.6,1.0,345.8,0.00,23.0,26.0,"03:21:52",1
"23/08/18","03:40",0.0,24.7,90.4,1003.6,272.1,0.7,1.0,264.3,0.00,23.1,26.1,"03:38:08",1
"23/08/18","03:50",0.0,24.6,90.6,1003.4,293.2,0.7,1.1,290.9,0.00,23.0,26.1,"03:44:56",1
"23/08/18","04:00",0.0,24.6,90.7,1003.4,314.8,0.6,1.1,333.9,0.00,23.0,26.1,"03:59:36",1
"23/08/18","04:10",0.0,24.6,90.8,1003.4,315.0,0.7,1.1,313.8,0.00,23.0,26.2,"04:06:32",1
"23/08/18","04:20",0.0,24.6,90.9,1003.6,322.1,1.0,1.8,329.4,0.00,23.1,26.0,"04:14:16",1
"23/08/18","04:30",0.0,24.5,91.1,1003.6,306.5,0.6,1.0,299.9,0.00,23.0,25.9,"04:21:20",1
"23/08/18","04:40",0.0,24.6,91.2,1003.1,317.8,0.6,1.0,323.4,0.00,23.1,26.0,"04:37:20",1
"23/08/18","04:50",0.0,24.5,91.3,1003.6,305.7,0.8,1.6,320.6,0.00,23.0,26.0,"04:49:12",1
"23/08/18","05:00",0.0,24.4,91.5,1003.6,322.9,0.8,1.1,338.3,0.00,23.0,25.9,"04:52:08",1
"23/08/18","05:10",0.0,24.5,91.7,1003.4,334.9,0.8,1.2,333.0,0.00,23.1,26.0,"05:00:02",1
"23/08/18","05:20",0.0,24.4,91.8,1003.4,307.1,0.6,1.2,331.6,0.00,23.0,25.9,"05:10:32",1
"23/08/18","05:30",0.0,24.4,92.0,1003.4,298.6,0.7,1.3,324.9,0.00,23.1,25.9,"05:28:00",1
"23/08/18","05:40",0.0,24.4,92.1,1003.1,307.1,0.8,1.6,314.3,0.00,23.1,26.0,"05:30:56",1
"23/08/18","05:50",0.0,24.4,92.2,1003.6,305.9,0.8,1.4,327.1,0.00,23.1,25.8,"05:43:12",1
"23/08/18","06:00",0.0,24.5,92.3,1003.6,311.0,0.8,1.4,313.9,0.00,23.2,25.9,"05:59:20",1
"23/08/18","06:10",0.0,24.5,92.3,1003.8,318.8,0.8,1.7,332.2,0.00,23.2,25.9,"06:00:32",1
"23/08/18","06:20",0.0,24.7,92.3,1004.1,299.4,0.5,1.0,320.5,0.00,23.4,25.8,"06:19:20",1
"23/08/18","06:30",0.0,24.8,92.3,1004.1,306.1,0.7,1.1,301.8,0.00,23.5,25.8,"06:22:16",1
"23/08/18","06:40",0.0,24.8,92.3,1003.8,306.1,0.8,1.3,307.0,0.00,23.5,25.9,"06:39:20",1
"23/08/18","06:50",0.0,25.0,92.2,1004.1,324.8,0.8,1.3,347.6,0.00,23.7,25.7,"06:43:52",1
"23/08/18","07:00",0.0,25.0,92.3,1004.5,319.7,0.8,1.3,328.1,0.00,23.7,26.0,"06:57:12",1
"23/08/18","07:10",0.0,25.2,92.3,1004.1,328.2,1.0,1.3,336.7,0.01,23.9,25.8,"07:03:44",1
"23/08/18","07:20",0.0,25.3,92.3,1003.8,292.6,0.8,1.3,335.6,0.02,24.0,25.8,"07:12:16",1
"23/08/18","07:30",0.0,25.4,92.3,1004.1,309.9,0.7,1.2,330.0,0.03,24.1,25.9,"07:21:44",1
"23/08/18","07:40",0.0,25.6,92.2,1004.1,290.2,0.6,1.0,298.8,0.03,24.3,25.8,"07:37:12",1
"23/08/18","07:50",0.0,25.7,91.9,1003.8,282.9,0.7,1.3,332.1,0.04,24.3,25.7,"07:48:40",1
"23/08/18","08:00",0.0,25.8,91.6,1003.8,268.5,0.8,1.3,246.1,0.06,24.4,26.0,"07:58:00",1
"23/08/18","08:10",0.0,26.2,90.9,1004.1,308.5,0.6,1.1,322.3,0.06,24.6,25.8,"08:05:52",1
"23/08/18","08:20",0.0,26.4,90.0,1003.8,335.0,0.7,1.4,348.8,0.06,24.7,25.7,"08:15:44",1
"23/08/18","08:30",0.0,27.0,89.3,1003.8,277.0,0.2,1.0,329.2,0.06,25.1,25.8,"08:20:08",1
"23/08/18","08:40",0.0,27.1,88.5,1004.1,279.9,0.2,0.8,293.7,0.06,25.1,25.9,"08:34:16",1
"23/08/18","08:50",0.0,27.4,86.9,1003.8,320.1,0.3,1.0,332.9,0.08,25.1,25.7,"08:47:52",1
"23/08/18","09:00",0.0,27.6,85.5,1003.6,319.8,0.8,1.8,353.3,0.09,25.0,25.9,"08:57:28",1
"23/08/18","09:10",0.0,27.9,83.7,1003.6,344.1,1.0,1.9,353.9,0.14,24.9,26.0,"09:00:08",1
"23/08/18","09:20",0.0,28.5,82.0,1002.6,3.2,0.6,1.7,346.3,0.15,25.2,25.8,"09:10:24",1
"23/08/18","09:30",0.0,29.0,80.0,1003.1,18.6,0.5,1.6,359.5,0.15,25.2,25.8,"09:22:32",1
"23/08/18","09:40",0.0,29.3,77.6,1003.6,66.8,0.6,1.4,352.4,0.18,25.0,26.1,"09:32:16",1
"23/08/18","09:50",0.0,29.5,75.8,1003.8,109.5,0.6,1.6,102.6,0.18,24.8,25.7,"09:46:00",1
"23/08/18","10:00",0.0,29.8,75.1,1004.1,39.7,0.6,1.7,86.0,0.18,25.0,25.9,"09:56:16",1
"23/08/18","10:10",0.0,30.4,74.8,1004.3,72.7,0.6,1.9,111.2,0.22,25.5,25.9,"10:01:28",1
"23/08/18","10:20",0.0,30.4,73.9,1004.8,135.8,1.1,2.4,172.7,0.26,25.3,26.1,"10:17:44",1
"23/08/18","10:30",0.0,30.3,72.8,1005.2,134.2,1.1,2.6,138.7,0.25,24.9,26.1,"10:25:12",1
"23/08/18","10:40",0.0,30.5,72.2,1004.8,101.0,0.7,2.2,109.8,0.19,25.0,26.0,"10:34:08",1
"23/08/18","10:50",0.0,30.6,72.3,1005.0,70.3,0.7,1.7,114.1,0.13,25.1,26.2,"10:48:40",1
"23/08/18","11:00",0.0,30.1,73.0,1004.8,135.5,1.1,2.9,95.6,0.13,24.8,26.2,"10:55:04",1
"23/08/18","11:10",0.0,30.0,73.6,1004.5,183.8,0.8,2.1,197.3,0.12,24.8,26.2,"11:09:52",1
"23/08/18","11:20",0.0,30.0,74.1,1004.3,160.3,1.0,2.2,208.2,0.12,24.9,26.3,"11:11:44",1
"23/08/18","11:30",0.0,30.4,72.4,1004.3,131.6,0.6,1.2,216.8,0.19,24.9,26.3,"11:27:36",1
"23/08/18","11:40",0.0,31.3,71.4,1004.5,28.9,0.6,1.6,4.6,0.28,25.5,26.3,"11:32:00",1
"23/08/18","11:50",0.0,32.1,69.1,1005.0,13.0,0.8,2.2,13.6,0.37,25.8,26.4,"11:43:12",1
"23/08/18","12:00",0.0,33.5,65.4,1005.2,86.6,0.7,2.0,7.6,0.55,26.2,26.2,"11:55:44",1
"23/08/18","12:10",0.0,33.5,63.7,1006.0,129.6,1.0,2.1,8.9,0.47,25.7,26.5,"12:02:40",1
"23/08/18","12:20",0.0,33.3,62.8,1006.2,172.7,1.6,3.4,206.4,0.56,25.3,26.3,"12:17:12",1
"23/08/18","12:30",0.0,34.3,62.6,1006.4,140.9,1.1,2.7,198.7,0.66,26.2,26.6,"12:20:40",1
"23/08/18","12:40",0.0,34.7,59.1,1006.4,228.2,1.1,3.5,229.6,0.58,25.6,26.8,"12:32:48",1
"23/08/18","12:50",0.0,33.4,63.3,1006.2,175.2,1.3,4.2,184.2,0.43,25.5,27.0,"12:45:20",1
"23/08/18","13:00",0.0,33.2,62.2,1006.0,204.7,1.2,3.7,225.3,0.30,25.0,26.6,"12:53:20",1
"23/08/18","13:10",0.0,32.7,62.8,1005.5,251.1,1.3,3.6,221.4,0.28,24.7,26.7,"13:01:28",1
"23/08/18","13:20",0.0,33.7,61.8,1005.2,119.0,1.0,2.6,189.1,0.42,25.4,26.9,"13:14:08",1
"23/08/18","13:30",0.0,33.7,61.0,1005.5,179.1,1.5,3.5,239.2,0.39,25.2,26.8,"13:24:40",1
"23/08/18","13:40",0.0,34.1,63.8,1005.2,262.4,1.5,4.7,228.5,0.43,26.3,27.2,"13:34:16",1
"23/08/18","13:50",0.0,34.5,61.7,1005.5,227.0,1.2,3.3,342.9,0.47,26.1,27.0,"13:40:40",1
"23/08/18","14:00",0.0,33.7,60.8,1005.7,226.3,1.5,3.6,314.9,0.35,25.1,27.3,"13:52:16",1
"23/08/18","14:10",0.0,33.5,60.9,1005.5,282.2,1.0,2.6,348.1,0.22,25.0,27.2,"14:08:48",1
"23/08/18","14:20",0.0,32.9,63.3,1005.2,300.9,1.0,2.5,342.3,0.18,25.0,27.5,"14:15:04",1
"23/08/18","14:30",0.0,32.5,63.8,1005.0,310.1,1.1,2.6,345.8,0.17,24.8,27.3,"14:23:28",1
"23/08/18","14:40",0.0,32.7,64.9,1004.8,322.4,1.2,2.9,237.4,0.17,25.3,27.2,"14:32:56",1
"23/08/18","14:50",0.0,32.6,64.7,1004.8,316.6,1.0,2.6,335.1,0.16,25.1,27.5,"14:42:40",1
"23/08/18","15:00",0.0,32.5,64.7,1005.0,308.1,1.0,2.0,288.6,0.15,25.0,27.4,"14:50:02",1
"23/08/18","15:10",0.0,32.3,65.2,1004.3,303.2,1.1,2.8,333.9,0.12,25.0,27.6,"15:00:48",1
"23/08/18","15:20",0.0,32.2,65.4,1004.3,321.9,1.2,2.6,342.1,0.11,24.9,27.7,"15:16:24",1
"23/08/18","15:30",0.0,32.2,65.5,1004.1,321.5,1.0,2.5,349.2,0.12,25.0,27.4,"15:20:16",1
"23/08/18","15:40",0.0,32.2,66.0,1004.1,329.5,1.0,2.6,354.2,0.10,25.1,27.7,"15:32:48",1
"23/08/18","15:50",0.0,32.4,66.3,1004.1,330.2,0.8,2.0,330.9,0.11,25.3,27.4,"15:42:00",1
"23/08/18","16:00",0.0,32.6,67.8,1003.6,354.0,1.0,1.8,39.8,0.11,25.9,27.6,"15:54:56",1
"23/08/18","16:10",0.0,32.6,67.3,1004.1,353.4,0.8,1.9,351.9,0.12,25.8,27.6,"16:02:24",1
"23/08/18","16:20",0.0,32.5,66.4,1003.8,330.2,0.8,1.4,351.0,0.13,25.5,27.4,"16:11:04",1
"23/08/18","16:30",0.0,32.6,65.9,1004.3,329.2,0.8,1.8,357.1,0.12,25.4,27.5,"16:27:52",1
"23/08/18","16:40",0.0,32.6,66.3,1004.1,0.5,0.8,2.8,328.2,0.10,25.5,27.7,"16:30:08",1
"23/08/18","16:50",0.0,32.8,66.5,1004.1,15.2,1.0,2.2,24.3,0.10,25.8,27.6,"16:47:52",1
"23/08/18","17:00",0.0,32.6,66.5,1003.6,18.3,0.8,1.7,23.7,0.08,25.6,27.5,"16:50:32",1
"23/08/18","17:10",0.0,32.2,67.1,1003.6,345.5,0.8,1.7,349.2,0.05,25.4,27.4,"17:02:56",1
"23/08/18","17:20",0.0,32.6,67.4,1003.6,4.7,0.7,1.6,329.8,0.08,25.8,27.8,"17:15:44",1
"23/08/18","17:30",0.0,32.9,66.4,1003.6,28.8,0.6,1.6,355.4,0.07,25.8,27.7,"17:25:28",1
"23/08/18","17:40",0.0,32.5,65.6,1003.6,70.5,0.5,1.0,353.6,0.02,25.3,27.7,"17:38:48",1
"23/08/18","17:50",0.0,31.8,67.8,1003.6,104.2,0.6,2.4,98.1,0.00,25.2,27.6,"17:46:16",1
"23/08/18","18:00",0.0,31.6,70.0,1002.9,55.7,0.6,2.8,27.5,0.01,25.5,27.7,"17:53:36",1
"23/08/18","18:10",0.0,31.2,71.4,1002.6,46.9,0.7,2.5,6.8,0.01,25.4,27.5,"18:03:28",1
"23/08/18","18:20",0.0,30.9,72.5,1002.4,24.3,0.6,1.7,31.3,0.00,25.4,27.6,"18:15:52",1
"23/08/18","18:30",0.0,30.6,73.8,1002.6,359.1,0.6,1.4,51.7,0.00,25.4,27.7,"18:20:32",1
"23/08/18","18:40",0.0,30.1,75.1,1002.4,317.7,0.1,0.5,308.2,0.00,25.2,27.6,"18:31:36",1
"23/08/18","18:50",0.0,30.0,77.2,1002.2,328.1,0.7,1.6,352.8,0.00,25.6,27.6,"18:49:44",1
"23/08/18","19:00",0.0,29.6,78.3,1001.7,337.6,0.7,1.7,352.6,0.00,25.5,27.5,"18:52:00",1
"23/08/18","19:10",0.0,29.3,79.4,1001.9,300.6,0.6,1.1,334.7,0.00,25.4,27.3,"19:02:48",1
"23/08/18","19:20",0.0,29.0,80.2,1002.2,309.9,0.6,1.2,324.2,0.00,25.3,27.5,"19:17:44",1
"23/08/18","19:30",0.0,28.9,80.8,1002.4,289.3,0.5,1.1,255.7,0.00,25.3,27.5,"19:29:52",1
"23/08/18","19:40",0.0,28.7,81.3,1002.6,296.6,0.5,1.2,258.3,0.00,25.2,27.5,"19:38:32",1
"23/08/18","19:50",0.0,28.6,82.0,1003.1,318.7,0.6,1.4,339.0,0.00,25.3,27.3,"19:49:44",1
"23/08/18","20:00",0.0,28.3,82.5,1003.1,306.8,0.6,1.2,311.7,0.00,25.1,27.5,"19:58:24",1
"23/08/18","20:10",0.0,28.2,83.0,1003.4,278.0,0.3,1.2,324.7,0.00,25.1,27.3,"20:01:52",1
"23/08/18","20:20",0.0,28.0,83.6,1003.6,287.3,0.6,1.1,251.7,0.00,25.0,27.2,"20:18:48",1
"23/08/18","20:30",0.0,27.9,84.1,1003.8,308.0,0.8,2.1,324.9,0.00,25.0,27.2,"20:21:44",1
"23/08/18","20:40",0.0,27.9,84.6,1004.1,331.7,0.8,1.9,343.3,0.00,25.1,27.2,"20:34:00",1
"23/08/18","20:50",0.0,27.6,85.2,1004.1,310.4,0.8,1.2,301.1,0.00,24.9,27.3,"20:44:32",1
"23/08/18","21:00",0.0,27.6,85.4,1004.5,291.4,0.7,1.2,314.4,0.00,25.0,27.2,"20:52:16",1
"23/08/18","21:10",0.0,27.5,85.6,1004.3,290.3,0.8,1.8,341.6,0.00,24.9,27.2,"21:09:36",1
"23/08/18","21:20",0.0,27.5,85.7,1004.1,297.2,0.8,1.3,339.9,0.00,24.9,27.1,"21:13:36",1
"23/08/18","21:30",0.0,27.5,85.7,1004.5,302.7,1.0,1.4,323.4,0.00,24.9,27.0,"21:20:48",1
"23/08/18","21:40",0.0,27.4,85.7,1004.5,302.4,1.0,1.6,318.1,0.00,24.8,27.3,"21:33:20",1
"23/08/18","21:50",0.0,27.4,85.8,1005.2,298.3,0.7,1.2,251.1,0.00,24.8,27.0,"21:47:36",1
"23/08/18","22:00",0.0,27.2,86.0,1005.2,298.6,0.6,1.3,257.1,0.00,24.7,26.9,"21:57:44",1
"23/08/18","22:10",0.0,27.3,86.4,1005.0,344.8,0.8,1.6,348.6,0.00,24.9,27.0,"22:08:00",1
"23/08/18","22:20",0.0,26.9,86.8,1004.8,302.1,0.6,1.2,321.9,0.00,24.6,26.9,"22:11:20",1
"23/08/18","22:30",0.0,26.8,87.3,1005.0,294.5,0.6,1.0,313.4,0.00,24.6,26.9,"22:25:44",1
"23/08/18","22:40",0.0,26.8,87.6,1005.2,314.4,1.0,1.7,330.3,0.00,24.6,26.9,"22:35:44",1
"23/08/18","22:50",0.0,26.8,87.8,1005.5,308.4,1.0,1.7,328.7,0.00,24.6,26.9,"22:41:44",1
"23/08/18","23:00",0.0,26.8,87.9,1005.5,309.6,0.6,1.1,328.8,0.00,24.7,27.0,"22:51:44",1
"23/08/18","23:10",0.0,26.8,88.1,1005.2,310.6,0.7,1.0,308.8,0.00,24.7,26.8,"23:07:20",1
"23/08/18","23:20",0.0,26.6,88.4,1005.7,300.7,0.6,1.1,300.7,0.00,24.6,26.9,"23:13:52",1
"23/08/18","23:30",0.0,26.6,88.6,1005.5,306.6,1.0,1.6,312.8,0.00,24.6,26.8,"23:24:24",1
"23/08/18","23:40",0.0,26.6,88.7,1005.2,298.0,0.8,1.3,310.4,0.00,24.6,26.7,"23:31:12",1
"23/08/18","23:50",0.0,26.6,88.9,1005.2,304.1,0.8,1.4,317.0,0.00,24.7,26.9,"23:40:02",1
"23/08/18","24:00",0.0,26.6,89.0,1005.5,322.1,0.8,1.4,304.9,0.00,24.7,26.8,"23:50:16",1
